Regional Weather Roundup
Issued by NWS

Home | Current Version | Previous Version | Text Only | Print | Product List | Glossary On
Versions: 1 2 3 4 5 6 7 8 9 10 11 12 13 14 15 16 17 18 19 20 21 22 23 24 25 26 27 28 29 30 31 32 33 34 35 36 37 38 39 40 41 42 43 44 45 46 47 48 49 50
000
ASUS42 KTBW 220010
RWRFL
FLORIDA REGIONAL WEATHER ROUNDUP
NATIONAL WEATHER SERVICE TAMPA BAY RUSKIN FL
800 PM EDT SUN SEP 21 2014

NOTE: "FAIR" INDICATES FEW OR NO CLOUDS BELOW 12,000 FEET WITH NO
SIGNIFICANT WEATHER AND/OR OBSTRUCTIONS TO VISIBILITY.


FLZ001>010-012>015-112-114-115-220100-
PANHANDLE FLORIDA

CITY           SKY/WX    TMP DP  RH WIND       PRES   REMARKS
PENSACOLA      CLEAR     76  67  73 S6        29.98R
PENSACOLA NAS  PTCLDY    79  67  66 S7        29.98R
MILTON NAS     PTCLDY    78  66  66 S6        29.98R
CRESTVIEW      CLEAR     77  70  79 CALM      29.99R
DUKE FIELD     FAIR      79  73  82 S6        29.98R
VALPARAISO     PTCLDY    81  67  64 SW5       29.99R
MARY ESTHER    CLEAR     80  63  55 SW3       29.98R
TRI COUNTY     FAIR      72  70  93 MISG      29.99R
PANAMA CITY    FAIR      79  68  69 SW5       29.98R
TYNDALL AFB    CLEAR     78  72  80 S5        29.99R
APALACHICOLA   CLEAR     79  67  66 SE5       29.98R

STATION/POSITION SKY/WX   TEMP    WIND        PRES    WAVE   SWELL
                          AIR SEA DIR/SP/G            HT/PER HT/PER
                          (F)     (DEG/KT/KT) (MB)    (FT/S) (FT/S)
30.1N   87.6W              82 85  140/  8/ 10 1015.1R   3/ 5   2/ 5
29.2N   88.2W              82 85   80/ 16/ 17 1015.0    4/ 6
PANAMA CITY BEAC           82 86  240/  5/  6 1015.2R
CAPE SAN BLAS    NOT AVBL
TOWER C                    79     140/  3/  5 1015.4R
28.5N   84.5W              81 85  140/  6/  8 1015.0R   2/ 4   2/ 4

$$
FLZ011-016>038-118-127-128-134-139-239-220100-
NORTH FLORIDA

CITY           SKY/WX    TMP DP  RH WIND       PRES   REMARKS
MARIANNA       CLEAR     78  67  68 S3        29.97R
TALLAHASSEE    PTCLDY    78  66  66 S5        29.98R
PERRY          CLEAR     77  66  69 CALM      29.99R
CROSS CITY       N/A     78  71  79 CALM      29.98R
LAKE CITY      FAIR      73  64  73 CALM      29.99R
GAINESVILLE    CLEAR     74  66  76 CALM      29.98R
MAYPORT NAS    PTCLDY    75  64  68 S5        29.99R
JACKSONVILLE   PTCLDY    74  66  76 S7        29.97S
JAX NAS        PTCLDY    83  60  45 SE10      29.99R
JAX CRAIG      CLEAR     76  64  66 S3        29.99R
JAX CECIL      CLEAR     73  66  78 CALM      29.99R
ST AUGUSTINE   CLEAR     77  67  71 CALM      30.00S

STATION/POSITION SKY/WX   TEMP    WIND        PRES    WAVE   SWELL
                          AIR SEA DIR/SP/G            HT/PER HT/PER
                          (F)     (DEG/KT/KT) (MB)    (FT/S) (FT/S)
SHELL POINT                81     200/  7/  9   N/A
KEATON BEACH               80     270/  3/  4 1015.4R
CEDAR KEY                  80     310/  2/  3 1015.7R
FERNANDINA                 79 82  180/  5/  8 1014.8R
30.7N   81.3W                 84                N/A     3/10
MAYPORT                    78 83  180/  3/  4   N/A
31.4N   80.9W              81 83  200/ 14/ 17 1014.5R   2/11   2/11
ST AUGUSTINE               80      90/  4/  5 1016.5R

$$
FLZ040-043>046-052-053-057-058-063-144-220100-
INTERIOR CENTRAL FLORIDA

CITY           SKY/WX    TMP DP  RH WIND       PRES   REMARKS
OCALA          CLEAR     77  68  73 CALM      29.98R
THE VILLAGES     N/A     82  70  65 CALM      29.89R
LEESBURG       MOCLDY    83  68  60 E8        29.99R
SANFORD        PTCLDY    79  71  76 E6        29.99R
ORLANDO EXEC   MOCLDY    80  73  79 SE7       30.00R
ORLANDO INTL   MOCLDY    78  74  87 SE8G22    30.00R
KISSIMMEE      PTCLDY    81  75  83 E9        29.99R
WINTER HAVEN   MOCLDY    83  72  69 S7        30.00R
LAKELAND       MOCLDY    81  73  78 S7        29.99R
BARTOW         FAIR      77  73  88 S7        30.00R
OKEECHOBEE       N/A     73  73 100 MISG      30.00R

$$
FLZ041-047-054-059-064-141-147-220100-
EAST CENTRAL FLORIDA

CITY           SKY/WX    TMP DP  RH WIND       PRES   REMARKS
DAYTONA BEACH  PTCLDY    78  70  76 E3        30.00R
DELAND         CLEAR     77  68  73 NE3       30.01R
NEW SMYRNA BEA CLEAR     79  68  69 NE8       29.99R
JFK SPACE CTR  MOCLDY    76  72  86 SE2       29.99R
TITUSVILLE     PTCLDY    79  72  78 CALM      30.00R
CAPE CANAVERAL MOCLDY    77  70  79 E2        29.99R
PATRICK AFB    PTCLDY    81  73  78 E5        29.99R
MELBOURNE      PTCLDY    78  74  87 S3        29.99R
VERO BEACH     MOCLDY    74  72  93 S3        30.00R
FT PIERCE      MOCLDY    75  72  90 S3        30.00R

STATION/POSITION SKY/WX   TEMP    WIND        PRES    WAVE   SWELL
                          AIR SEA DIR/SP/G            HT/PER HT/PER
                          (F)     (DEG/KT/KT) (MB)    (FT/S) (FT/S)
28.5N   80.2W              81 84   30/  6/  6 1015.3S   4/10   3/10
28.9N   78.5W              82 85  340/  2/  4 1015.7R   5/10   5/10
TRIDENT PIER               78 84   10/  1/  3 1015.0R
28.4N   80.5W                 83                N/A     2/10
27.6N   80.2W                 83                N/A     2/ 9

$$
FLZ050-056-061-142-242-148-248-149-249-151-251-155-255-
160-260-220100-
WEST CENTRAL FLORIDA

CITY           SKY/WX    TMP DP  RH WIND       PRES   REMARKS
CRYSTAL RIVER  FAIR      77  72  83 CALM      29.98R
INVERNESS      FAIR      77  63  61 CALM      29.98R
BROOKSVILLE    PTCLDY    78  72  81 W6        29.99R
ZEPHYRHILLS    FAIR      77  73  88 CALM      29.99R
CLEARWATER     MOCLDY    81  74  79 W5        29.99R
TAMPA INTL     MOCLDY    82  73  74 W6        29.99R
TAMPA EXEC     MOCLDY    81  73  78 CALM      29.99R
PLANT CITY     CLOUDY    84  72  65 S6        30.00R
MACDILL AFB    CLOUDY    81  75  83 W5        29.99R
ST PETERSBURG  PTCLDY    82  73  74 W6        29.97R
SARASOTA       PTCLDY    82  73  74 W3        29.97R
VENICE           N/A    N/A N/A N/A MISG        N/A

STATION/POSITION SKY/WX   TEMP    WIND        PRES    WAVE   SWELL
                          AIR SEA DIR/SP/G            HT/PER HT/PER
                          (F)     (DEG/KT/KT) (MB)    (FT/S) (FT/S)
CEDAR KEY                  80     310/  2/  3 1015.7R
28.5N   84.5W              81 85  140/  6/  8 1015.0R   2/ 4   2/ 4
27.3N   84.3W                 85                N/A     2/ 5
CLEARWATER BEACH NOT AVBL
MIDDLE TAMPA BAY           82     270/  8/ 10 1015.5R
VENICE                     83 86  230/  3/  3 1015.0R

$$
FLZ066-069-070-075>078-162-262-165-265-220100-
SOUTHWEST FLORIDA AND KEYS

CITY           SKY/WX    TMP DP  RH WIND       PRES   REMARKS
PUNTA GORDA    CLOUDY    83  75  77 S3        30.00R
FT MYERS       CLOUDY    79  73  82 SW5       29.98R
SOUTHWEST INTL CLOUDY    80  66  62 E3        29.99R
NAPLES         MOCLDY    83  73  72 CALM      29.99R
MARCO ISLAND   CLEAR     81  75  83 CALM      29.99S
MARATHON       CLEAR     84  75  74 CALM      29.99R
KEY WEST NAS   MOCLDY    83  74  74 E3        29.98R
KEY WEST INTL  PTCLDY    84  74  71 E5        29.99R

STATION/POSITION SKY/WX   TEMP    WIND        PRES    WAVE   SWELL
                          AIR SEA DIR/SP/G            HT/PER HT/PER
                          (F)     (DEG/KT/KT) (MB)    (FT/S) (FT/S)
VENICE                     83 86  230/  3/  3 1015.0R
NAPLES                     83 89  250/  1/  2 1016.0S
DRY TORTUGAS               83      CALM  /  1 1015.5R
NW FL BAY                  85     160/  1/  2 1015.0S
SAND KEY                   83      70/  3/  3 1014.9R
SOMBRERO KEY               84      90/  4/  5 1016.2R
LONG KEY                   84 86  120/  4/  5 1016.3R
MOLASSES REEF              84 86   CALM  /  1 1015.8R

$$
FLZ067-068-071>074-168-172>174-220100-
SOUTHEAST FLORIDA

CITY           SKY/WX    TMP DP  RH WIND       PRES   REMARKS
W PALM BEACH   LGT RAIN  75  74  96 S5        30.01R
FT LAUDER-EXEC TSTM      71  71 100 SE6       30.02R FOG
FT LAUDERDALE  CLOUDY    74  70  87 N15G22    30.01R THUNDER
POMPANO BEACH  TSTM      73  70  90 S14       30.04R FOG
PEMBROKE PINES MOCLDY    77  69  76 N14       30.03R THUNDER
OPA LOCKA      MOCLDY    82  74  76 SE7       30.01R
MIAMI          MOCLDY    80  75  84 CALM      30.01R
WEST KENDALL   MOCLDY    81  74  79 CALM      30.00R
HOMESTEAD      PTCLDY    78  74  87 N5        30.00R

STATION/POSITION SKY/WX   TEMP    WIND        PRES    WAVE   SWELL
                          AIR SEA DIR/SP/G            HT/PER HT/PER
                          (F)     (DEG/KT/KT) (MB)    (FT/S) (FT/S)
PORT EVERGLADES            84      80/  5/ 10 1015.9
VIRGINIA KEY               81 85  330/  1/  1   N/A
LAKE WORTH                 74 86  160/  4/  6 1016.3R
FOWEY ROCKS                84 85  130/  1/  2 1016.2R
SETTLEMENT POINT           82     260/  4/  4 1016.9R

$$



USA.gov is the U.S. government's official web portal to all federal, state and local government web resources and services.